This is the latest recevied weather packets stored in our database for station/object KF0JHJ. If no packets are shown the sender has not sent any weather packets the latest 10 day(s).
| Time | Temp. | Humidity | Pressure | Rain* | Wind** | Luminosity | Snow |
|---|---|---|---|---|---|---|---|
| 1777929478 | 14.44° C | 43% | 1000.5 hPa | - | - | 303 W/m² | - |
| 1777929173 | 14.44° C | 43% | 1000.3 hPa | - | - | 177 W/m² | - |
| 1777928871 | 15° C | 41% | 1000.4 hPa | - | - | 138 W/m² | - |
| 1777928568 | 15.56° C | 39% | 1000.2 hPa | - | - | 181 W/m² | - |
| 1777928265 | 15.56° C | 40% | 1000.1 hPa | - | - | 658 W/m² | - |
| 1777927963 | 15° C | 42% | 1000.1 hPa | - | - | 194 W/m² | - |
| 1777927661 | 15.56° C | 40% | 999.9 hPa | - | - | 595 W/m² | - |
| 1777927359 | 15.56° C | 40% | 999.9 hPa | - | - | 652 W/m² | - |
| 1777927058 | 16.11° C | 41% | 1000 hPa | - | - | 615 W/m² | - |
| 1777926755 | 15.56° C | 41% | 1000 hPa | - | - | 588 W/m² | - |
| 1777926455 | 16.11° C | 40% | 999.8 hPa | - | - | 629 W/m² | - |
| 1777926152 | 16.67° C | 42% | 1000 hPa | - | - | 690 W/m² | - |
| 1777925849 | 16.11° C | 40% | 999.9 hPa | - | - | 269 W/m² | - |
| 1777925547 | 16.11° C | 43% | 1000.1 hPa | - | - | 626 W/m² | - |
| 1777925244 | 15° C | 41% | 999.8 hPa | - | - | 628 W/m² | - |
| 1777924940 | 16.11° C | 41% | 1000 hPa | - | - | 527 W/m² | - |
| 1777924637 | 16.11° C | 42% | 999.6 hPa | - | - | 645 W/m² | - |
| 1777924333 | 15.56° C | 42% | 999.6 hPa | - | - | 574 W/m² | - |
| 1777924030 | 15.56° C | 42% | 999.5 hPa | - | - | 656 W/m² | - |
| 1777923726 | 15.56° C | 41% | 999.6 hPa | - | - | 574 W/m² | - |
| 1777923422 | 15.56° C | 41% | 999.3 hPa | - | - | 472 W/m² | - |
| 1777923120 | 16.11° C | 40% | 999.4 hPa | - | - | 626 W/m² | - |
| 1777922818 | 15.56° C | 43% | 999.7 hPa | - | - | 478 W/m² | - |
| 1777922516 | 15° C | 44% | 999.3 hPa | - | - | 464 W/m² | - |
| 1777922214 | 15° C | 43% | 999.3 hPa | - | - | 295 W/m² | - |
* Rain since midnight (hover to see other rain measurements)
** Current wind speed in m/s (hover to see current wind gust speed)